Regional Weather Roundup
Issued by NWS

Home | Current Version | Previous Version | Text Only | Print | Product List | Glossary On
Versions: 1 2 3 4 5 6 7 8 9 10 11 12 13 14 15 16 17 18 19 20 21 22 23 24 25 26 27 28 29 30 31 32 33 34 35 36 37 38 39 40 41 42 43 44 45 46 47 48 49 50
000
ASUS43 KDTX 201201
RWRMI
MICHIGAN HOURLY REGIONAL WEATHER ROUNDUP
NATIONAL WEATHER SERVICE DETROIT/PONTIAC MI
700 AM EST SAT DEC 20 2014

NOTE: "FAIR" INDICATES FEW OR NO CLOUDS BELOW 12,000 FEET WITH NO
SIGNIFICANT WEATHER AND/OR OBSTRUCTION TO VISIBILITY.

MIZ047>049-052>055-059>063-066>070-074>076-081>083-201300-
SOUTHEAST LOWER MICHIGAN

CITY           SKY/WX    TMP DP  RH WIND       PRES   REMARKS
ADRIAN         CLOUDY    29  21  72 E3        30.28F
6HR MIN TEMP:  28; 6HR MAX TEMP:  29;

ALMA           PTCLDY    16  15  97 CALM      30.30S
ANN ARBOR      CLOUDY    27  22  81 CALM      30.28F
BAD AXE        CLEAR     14  13  96 CALM      30.31R
6HR MIN TEMP:  13; 6HR MAX TEMP:  18;

CARO           CLEAR     13  11  90 CALM      30.30S
DETROIT CITY   CLOUDY    27  20  75 CALM      30.31S
6HR MIN TEMP:  22; 6HR MAX TEMP:  27;

DETROIT        CLOUDY    26  21  81 CALM      30.31S
6HR MIN TEMP:  24; 6HR MAX TEMP:  27;

FLINT          CLOUDY    20  14  77 CALM      30.30R
6HR MIN TEMP:  18; 6HR MAX TEMP:  20;

GROSSE ILE     CLOUDY    28  23  80 CALM      30.29S
HILLSDALE      CLOUDY    28  22  81 CALM      30.24S
HOWELL         CLOUDY    23  22  94 CALM      30.27F
6HR MIN TEMP:  16; 6HR MAX TEMP:  23;


CITY           SKY/WX    TMP DP  RH WIND       PRES   REMARKS
JACKSON        CLOUDY    26  22  84 CALM      30.26F
6HR MIN TEMP:  19; 6HR MAX TEMP:  26;

LAMBERTVILLE   CLOUDY    32  23  69 CALM      30.29S
LANSING        PTCLDY    18  14  84 CALM      30.29S
6HR MIN TEMP:  17; 6HR MAX TEMP:  20;

LAPEER         CLOUDY    15  14  93 CALM      30.30S
MASON          CLOUDY    24  22  91 CALM      30.28S
MONROE         CLOUDY    28  21  74 CALM      30.28S
MT. CLEMENS    CLOUDY    23  23  99 NW2       30.29S
6HR MIN TEMP:  21; 6HR MAX TEMP:  24;

PONTIAC        MOCLDY    21  18  88 CALM      30.27F
6HR MIN TEMP:  17; 6HR MAX TEMP:  25;

PORT HOPE        N/A     26  20  77 SW6       30.29S WCI  19
6HR MIN TEMP:  23; 6HR MAX TEMP:  27;

PORT HURON     CLOUDY    19  19 100 CALM      30.31S
TRI CITIES     PTCLDY    20  17  88 CALM      30.31S
6HR MIN TEMP:  19; 6HR MAX TEMP:  22;

TROY           CLOUDY    25  21  84 CALM      30.31F
SAGINAW HB     PTCLDY    19  19 100 CALM      30.30S
$$
MIZ043>046-050>051-056>058-064>065-071>073-077>080-201300-
SOUTHWEST LOWER MICHIGAN

CITY           SKY/WX    TMP DP  RH WIND       PRES   REMARKS
BATTLE CREEK   MOCLDY    22  18  85 CALM      30.27S
6HR MIN TEMP:  19; 6HR MAX TEMP:  26;

BENTON HARBOR  CLOUDY    28  24  85 SE3       30.27S
6HR MIN TEMP:  25; 6HR MAX TEMP:  28;

BIG RAPIDS     PTCLDY    16  15  96 CALM      30.26S
6HR MIN TEMP:  16; 6HR MAX TEMP:  17;

COLDWATER      MOCLDY    25  23  93 MISG      30.26S FOG
6HR MIN TEMP:  19; 6HR MAX TEMP:  26;

FREMONT        FAIR      19  18  95 CALM      30.28R
6HR MIN TEMP:  19; 6HR MAX TEMP:  22;

HOLLAND        PTCLDY    21  17  84 SE3       30.28S
6HR MIN TEMP:  21; 6HR MAX TEMP:  24;

GRAND RAPIDS   PTCLDY    18  14  84 SE7       30.27F WCI   9
6HR MIN TEMP:  17; 6HR MAX TEMP:  20;

IONIA          FAIR      18  17  95 CALM      30.28R
KALAMAZOO      CLEAR     18  15  88 N3        30.27S FOG
6HR MIN TEMP:  18; 6HR MAX TEMP:  22;

LUDINGTON      CLOUDY    22  20  91 E3        30.29S
MARSHALL       CLOUDY    24  22  94 CALM      30.26F
MOUNT PLEASANT PTCLDY    16  14  93 CALM      30.28S
MUSKEGON       PTCLDY    19  15  84 E3        30.29R
6HR MIN TEMP:  18; 6HR MAX TEMP:  22;

SOUTH HAVEN    CLOUDY    25  22  88 CALM      30.27S
$$
MIZ016>042-201300-
NORTHERN LOWER MICHIGAN

CITY           SKY/WX    TMP DP  RH WIND       PRES   REMARKS
ALPENA         PTCLDY     9   5  84 CALM      30.31R
6HR MIN TEMP:   8; 6HR MAX TEMP:  12;

BEAVER ISLAND  CLOUDY    24  23  97 CALM      30.28S
6HR MIN TEMP:  12; 6HR MAX TEMP:  24;

BELLAIRE       CLOUDY    25  22  88 CALM      30.30S
6HR MIN TEMP:  23; 6HR MAX TEMP:  25;

CADILLAC       CLOUDY    16  13  87 CALM      30.24F
CHARLEVOIX     CLOUDY    25  21  87 SE5       30.31S WCI  19
6HR MIN TEMP:  24; 6HR MAX TEMP:  25;

FRANKFORT      CLOUDY    27  23  86 CALM      30.28S
GAYLORD        CLOUDY    19  17  92 SE5       30.25R WCI  12
6HR MIN TEMP:   4; 6HR MAX TEMP:  19;

GRAYLING       CLOUDY    14  12  92 CALM      30.28R
6HR MIN TEMP:   1; 6HR MAX TEMP:  14;

HARBOR SPRINGS CLOUDY    16  14  90 NE6       30.28S WCI   8
HOUGHTON LAKE  CLOUDY    11   8  88 CALM      30.27S FOG
6HR MIN TEMP:   6; 6HR MAX TEMP:  11;

MANISTEE       MOCLDY    21  16  79 CALM      30.29S
OSCODA         PTCLDY     7   5  89 CALM      30.30S
PELLSTON       CLOUDY     0  -4  83 CALM      30.30S
6HR MIN TEMP:  -3; 6HR MAX TEMP:   2;

ROGERS CITY    PTCLDY    15  15  97 SW3       30.31S
TRAVERSE CITY  CLOUDY    26  20  77 SE6       30.29R WCI  19
6HR MIN TEMP:  26; 6HR MAX TEMP:  28;

$$
MIZ007>008-015-201300-
EASTERN UPPER MICHIGAN

CITY           SKY/WX    TMP DP  RH WIND       PRES   REMARKS
KINROSS        CLOUDY     7   7 100 CALM      30.30R VSB 1
6HR MIN TEMP:   5; 6HR MAX TEMP:   9;

MACKINAC ISLAN PTCLDY    18  18  98 CALM      30.29S
6HR MIN TEMP:  16; 6HR MAX TEMP:  21;

NEWBERRY       CLOUDY    22  20  91 W5        30.27S WCI  16
6HR MIN TEMP:  22; 6HR MAX TEMP:  24;

S. S. MARIE    PTCLDY     9   4  80 CALM      30.34R
6HR MIN TEMP:   9; 6HR MAX TEMP:  16;

MUNISING         N/A     17  11  77 SW5       30.26S WCI  10
6HR MIN TEMP:  16; 6HR MAX TEMP:  24;

$$
MIZ004>006-011>014-085-201300-
CENTRAL UPPER MICHIGAN

CITY           SKY/WX    TMP DP  RH WIND       PRES   REMARKS
MANISTIQUE     CLOUDY    17  16  96 CALM      30.28R
6HR MIN TEMP:  17; 6HR MAX TEMP:  25;

ESCANABA       PTCLDY     7   3  85 CALM      30.26S
6HR MIN TEMP:   7; 6HR MAX TEMP:  14;

MENOMINEE      MOCLDY    14  12  92 CALM      30.26F
6HR MIN TEMP:  12; 6HR MAX TEMP:  16;

SAWYER-GWINN   CLOUDY    10   7  85 CALM      30.21S FOG
$$
MIZ001>003-009>011-084-201300-
WESTERN UPPER MICHIGAN

CITY           SKY/WX    TMP DP  RH WIND       PRES   REMARKS
IRON MOUNTAIN  CLOUDY    15  12  88 CALM      30.21S
6HR MIN TEMP:  12; 6HR MAX TEMP:  15;

HOUGHTON       CLEAR     13  11  92 CALM      30.18S FOG
6HR MIN TEMP:  14; 6HR MAX TEMP:  23;

COPPER HARBOR    N/A     24  19  81 SW9       30.21S WCI  14
6HR MIN TEMP:  24; 6HR MAX TEMP:  27;

IRONWOOD       CLOUDY    25  23  93 S3        30.15S
6HR MIN TEMP:  25; 6HR MAX TEMP:  25;

$$

ABBREVIATIONS USED IN REMARKS
   TC - TEMPERATURE IN CELSIUS
  WCI - WIND CHILL INDEX
   HX - HEAT INDEX
  VSB - VISIBILITY



USA.gov is the U.S. government's official web portal to all federal, state and local government web resources and services.